Location: Worth Mountain WMA
(34.9569°N, 81.4819°W)
Time: 18:27:15
(UTC-04:00)

Cosmos 1607 - Pass Details

Date: 18 August 2017
Orbit: 911 x 991 km, 65.0° (Epoch: 21 September)

Event Time Altitude Azimuth Distance (km) Brightness Sun altitude
Rises 21:58:22 0° 336° (NNW) 3,696 8.0 -20.9°
Reaches altitude 10° 22:01:04 10° 343° (NNW) 2,751 7.1 -21.4°
Maximum altitude 22:07:16 46° 56° (NE) 1,301 4.5 -22.4°
Enters shadow 22:08:52 39° 93° (E) 1,443 4.5 -22.7°
